Location: ?????
(55.6500°N, 37.2500°E)
Time: 13:31:35
(UTC+00:00)

BREEZE-M R/B - Pass Details

Date: 19 May 2025
Orbit: 537 x 26536 km, 49.1° (Epoch: 15 June)

Event Time Altitude Azimuth Distance (km) Brightness Sun altitude
Rises 20:14:05 0° 288° (WNW) 8,837 9.0 -12.8°
Reaches altitude 10° 20:22:46 10° 281° (W) 5,276 7.6 -13.1°
Maximum altitude 20:31:34 28° 226° (SW) 1,805 4.6 -13.5°
Enters shadow 20:33:54 19° 181° (S) 1,762 4.3 -13.5°
